This demonstration page uses our WeatherBlox Daily Observations layout. Learn more.

Left ArrowRight Arrow

41.55636, -103.73856

Hourly Observations for December 28, 2021

Temp ( °F °C ) Dew Point ( °F °C ) Humidity (%) Winds ( mph kmh ) Pressure ( in mb ) Visibility ( mi km ) Precip ( " mm )
12:58 am 00:58 Mostly Clear 28 -2.5 7 -13.9 42 42 WSW 7 11 29.36 994 10 16 0.00 0.00
1:58 am 01:58 Mostly Cloudy 28 -2.3 17 -8.1 65 65 W 21 33 29.41 996 10 16 0.00 0.00
2:58 am 02:58 Mostly Cloudy 29 -1.4 8 -13.3 40 40 WNW 24 39 29.42 996 10 16 0.00 0.00
3:58 am 03:58 Mostly Cloudy 28 -2.5 7 -14 41 41 W 20 31 29.47 998 10 16 0.00 0.00
4:58 am 04:58 Mostly Cloudy 25 -3.8 3 -16.3 38 38 W 29 46 29.52 1000 10 16 0.00 0.00
5:58 am 05:58 Clear 20 -6.5 7 -13.9 56 56 NW 23 37 29.60 1002 10 16 0.00 0.00
6:58 am 06:58 Clear 13 -10.4 7 -13.7 77 77 WNW 16 26 29.69 1005 10 16 0.00 0.00
7:58 am 07:58 Sunny 9 -12.9 5 -15.2 83 83 WSW 7 11 29.72 1007 10 16 0.00 0.00
8:58 am 08:58 Sunny 16 -9.1 8 -13.3 72 72 SSW 3 6 29.75 1008 10 16 0.00 0.00
9:58 am 09:58 Sunny 20 -6.6 7 -13.9 57 57 NNW 8 13 29.72 1006 10 16 0.00 0.00
10:58 am 10:58 Sunny 23 -5 3 -16 42 42 NW 18 30 29.69 1005 10 16 0.00 0.00
11:58 am 11:58 Sunny 27 -2.8 -2 -18.7 28 28 NNW 20 31 29.66 1005 10 16 0.00 0.00
12:58 pm 12:58 Sunny 28 -2.1 0 -17.9 29 29 NNW 9 15 29.63 1003 10 16 0.00 0.00
1:58 pm 13:58 Sunny 29 -1.4 1 -17.3 29 29 NNW 12 19 29.62 1003 10 16 0.00 0.00
2:58 pm 14:58 Sunny 29 -1.4 1 -17.4 29 29 NE 6 9 29.63 1003 10 16 0.00 0.00
3:58 pm 15:58 Sunny 25 -3.7 0 -17.7 33 33 E 8 13 29.66 1005 10 16 0.00 0.00
4:58 pm 16:58 Mostly Cloudy 24 -4.4 0 -17.7 35 35 ESE 9 15 29.69 1005 10 16 0.00 0.00
5:58 pm 17:58 Mostly Cloudy 25 -3.9 0 -17.7 34 34 SSE 13 20 29.74 1007 10 16 0.00 0.00
6:58 pm 18:58 Mostly Cloudy 23 -5.2 0 -18 36 36 S 17 28 29.78 1008 10 16 0.00 0.00
7:58 pm 19:58 Mostly Clear 19 -7.5 -1 -18.4 42 42 S 12 19 29.80 1009 10 16 0.00 0.00
8:58 pm 20:58 Cloudy 21 -6.1 0 -17.9 39 39 S 12 19 29.75 1008 10 16 0.00 0.00
9:58 pm 21:58 Mostly Cloudy 24 -4.6 -1 -18.5 33 33 S 17 28 29.73 1007 10 16 0.00 0.00
10:58 pm 22:58 Mostly Cloudy 23 -4.9 0 -18 35 35 SSW 29 46 29.68 1005 10 16 0.00 0.00
11:58 pm 23:58 Mostly Cloudy 22 -5.7 0 -17.8 38 38 SSW 26 43 29.67 1005 10 16 0.00 0.00

Powered by AerisWeather